Location: Couloutre
(47.4081°N, 3.2259°E)
Time: 07:44:58
(UTC+00:00)

NOSS 3-2 (C) - Pass Details

Date: 27 February 2020
Orbit: 813 x 1399 km, 63.4° (Epoch: 06 March)

Event Time Altitude Azimuth Distance (km) Brightness Sun altitude
Rises 20:51:24 0° 318° (NW) 3,977 7.6 -34.2°
Reaches altitude 10° 20:53:58 10° 316° (NW) 3,093 6.8 -34.6°
Enters shadow 21:01:19 67° 241° (WSW) 1,382 4.2 -35.6°
